Home   Weather   Thiruvananthapuram   Past weeks
Flag for India

Past Weather in Thiruvananthapuram, Kerala, India — Yesterday and Last 2 Weeks

Now
75 °F

Partly cloudy.


Feels Like: 74 °F
Forecast: 84 / 78 °F
Wind: 9 mph from Northeast

Location: Thiruvananthapuram

Current Time: Jul 22, 2019 at 1:10:19 am

Latest Report: Jul 22, 2019 at 12:30 am


Visibility: 2 mi

Pressure: 29.74 "Hg

Humidity: 94%

Dew Point: 73 °F

Location of ThiruvananthapuramLocation

Past Weather in Thiruvananthapuram — Graph

°F

Thiruvananthapuram Temperature Yesterday

Maximum temperature yesterday: 86 °F (at 12:30 pm)
Minimum temperature yesterday: 75 °F (at 6:30 am)
Average temperature yesterday: 79 °F

High & Low Weather Summary for the Past Weeks

 TemperatureHumidityPressure
High88 °F (Jul 7, 12:30 pm)100% (Jul 10, 8:30 am)29.89 "Hg (Jul 10, 8:30 am)
Low75 °F (Jul 9, 2:30 am)21% (Jul 16, 1:00 am)29.68 "Hg (Jul 17, 4:00 pm)
Average81 °F85%29.78 "Hg
* Reported Jul 6 11:30 pm — Jul 22 12:00 am, Thiruvananthapuram. Weather by CustomWeather, © 2019

Note: Actual official high and low records may vary slightly from our data, if they occured in-between our weather recording intervals... More about our weather records

Advertising

Thiruvananthapuram Weather History for the Previous 24 Hours

Scroll right to see more
 ConditionsComfort  
Time TempWeatherWind HumidityBarometerVisibility
12:00 am
Mon, Jul 22
75 °FPartly cloudy.10 mph94%29.77 "Hg2 mi
11:30 pm
Sun, Jul 21
75 °FLight rain. Partly cloudy.13 mph94%29.77 "Hg1 mi
11:00 pm75 °FRain. Partly cloudy.10 mph94%29.80 "Hg1 mi
10:30 pm75 °FRain. Partly cloudy.15 mph94%29.80 "Hg1 mi
10:00 pm75 °FRain. Partly cloudy.9 mph100%29.80 "Hg1 mi
9:30 pm77 °FRain. Partly cloudy.9 mph94%29.80 "Hg1 mi
9:00 pm79 °FPartly cloudy.10 mph84%29.77 "Hg2 mi
8:30 pm79 °FPassing clouds.9 mph84%29.74 "Hg2 mi
8:00 pm79 °FPartly cloudy.10 mph84%29.74 "Hg2 mi
7:30 pm79 °FPartly cloudy.12 mph84%29.71 "Hg2 mi
7:00 pm81 °FBroken clouds.7 mph79%29.71 "Hg2 mi
6:30 pm81 °FBroken clouds.12 mph79%29.71 "Hg2 mi
6:00 pm81 °FBroken clouds.12 mph79%29.71 "Hg2 mi
5:30 pm81 °FBroken clouds.12 mph79%29.71 "Hg2 mi
5:00 pm81 °FBroken clouds.14 mph84%29.68 "Hg2 mi
4:30 pm81 °FBroken clouds.12 mph79%29.68 "Hg2 mi
4:00 pm81 °FBroken clouds.12 mph84%29.68 "Hg2 mi
3:30 pm84 °FBroken clouds.9 mph74%29.68 "Hg2 mi
3:00 pm82 °FPartly sunny.9 mph79%29.68 "Hg2 mi
2:30 pm86 °FPartly sunny.14 mph70%29.68 "Hg3 mi
2:00 pm82 °FPartly sunny.14 mph74%29.71 "Hg3 mi
1:00 pm82 °FBroken clouds.14 mph74%29.71 "Hg3 mi
12:30 pm86 °FLight rain. Broken clouds.15 mph70%29.74 "Hg3 mi
12:00 pm84 °FPartly sunny.9 mph74%29.74 "Hg4 mi
11:30 am84 °FBroken clouds.10 mph70%29.74 "Hg3 mi
11:00 am82 °FBroken clouds.8 mph74%29.74 "Hg3 mi
10:30 am82 °FBroken clouds.10 mph74%29.74 "Hg3 mi
10:00 am82 °FBroken clouds.10 mph74%29.77 "Hg3 mi
9:30 am79 °FBroken clouds.9 mph84%29.77 "Hg2 mi
9:00 am77 °FDrizzle. Broken clouds.9 mph89%29.77 "Hg2 mi
8:30 am77 °FLight rain. More clouds than sun.12 mph89%29.77 "Hg1 mi
8:00 am77 °FFog.12 mph89%29.74 "Hg2 mi
6:30 am75 °FFog.8 mph94%29.71 "Hg2 mi
6:00 am77 °FFog.7 mph89%29.71 "Hg2 mi
5:30 am77 °FFog.7 mph89%29.71 "Hg2 mi
5:00 am77 °FFog.8 mph89%29.71 "Hg2 mi
4:30 am77 °FFog.8 mph89%29.71 "Hg2 mi
4:00 am77 °FPartly cloudy.6 mph89%29.71 "Hg2 mi
3:30 am77 °FFog.9 mph89%29.71 "Hg2 mi
3:00 am77 °FFog.7 mph89%29.71 "Hg1 mi
2:30 am77 °FFog.9 mph89%29.71 "Hg1 mi
2:00 am77 °FFog.9 mph89%29.71 "Hg1 mi
1:30 am77 °FFog.9 mph89%29.74 "Hg1 mi
1:00 am77 °FFog.8 mph89%29.77 "Hg1 mi
Weather by CustomWeather, © 2019

See weather overview